Home > Weather > Brussels > Past weeks

Flag for Belgium Past Weather in Brussels, Belgium — Yesterday and Last 2 Weeks

Now
72 °F

Partly sunny.


Feels Like: 74 °F
Forecast: 56 / 73 °F
Wind: 8 mph from West

Location: Brussels National Airport

Current Time: Jul 25, 2016 at 2:07:12 PM

Latest Report: Jul 25, 2016 at 1:20 PM


Visibility: N/A

Pressure: 30.12 "Hg

Humidity: 73%

Dew Point: 63 °F

Location of BrusselsLocation

Past Weather in Brussels — Graph

°F

Brussels Temperature Yesterday

Maximum temperature yesterday: 79 °F (at 6:20 PM)
Minimum temperature yesterday: 61 °F (at 2:20 AM)
Average temperature yesterday: 68 °F

High & Low Weather Summary for the Past Weeks

 TemperatureHumidityPressure
High91 °F (Jul 20, 1:50 PM)100% (Jul 23, 1:20 AM)30.30 "Hg (Jul 23, 1:20 AM)
Low48 °F (Jul 15, 4:50 AM)36% (Jul 20, 1:50 PM)29.80 "Hg (Jul 10, 4:50 PM)
Average67 °F72%30.07 "Hg
* Reported Jul 10 12:20 PM — Jul 25 12:50 PM, Brussels, Weather by CustomWeather, © 2016

Note: Actual official high and low records may vary slightly from our data, if they occured in-between our weather recording intervals... More about our weather records

Advertising

Brussels Weather History for the Previous 24 Hours

Scroll right to see more
 ConditionsComfort  
Time TempWeatherWind HumidityBarometerVisibility
12:50 PM
Mon, Jul 25
72 °FPartly sunny.6 mph73%30.12 "HgN/A
12:20 PM70 °FPartly sunny.8 mph78%30.12 "HgN/A
11:50 AM70 °FPartly sunny.7 mph78%30.12 "HgN/A
11:20 AM70 °FPartly sunny.9 mph78%30.12 "HgN/A
10:50 AM70 °FScattered clouds.8 mph73%30.12 "HgN/A
10:20 AM68 °FPartly sunny.8 mph83%30.12 "HgN/A
9:50 AM68 °FBroken clouds.9 mph78%30.12 "HgN/A
9:20 AM68 °FBroken clouds.8 mph78%30.12 "HgN/A
8:50 AM66 °FBroken clouds.6 mph83%30.12 "HgN/A
8:20 AM64 °FBroken clouds.5 mph88%30.09 "HgN/A
7:50 AM64 °FScattered clouds.5 mph88%30.09 "HgN/A
7:20 AM64 °FPassing clouds.5 mph83%30.09 "HgN/A
6:50 AM64 °FPassing clouds.3 mph88%30.09 "HgN/A
6:20 AM63 °FClear.3 mph88%30.09 "Hg10 mi
5:50 AM63 °FClear.3 mph88%30.09 "Hg10 mi
5:20 AM63 °FClear.5 mph88%30.09 "Hg10 mi
4:50 AM63 °FPassing clouds.3 mph88%30.09 "HgN/A
4:20 AM63 °FPassing clouds.3 mph88%30.09 "HgN/A
3:50 AM61 °FPassing clouds.5 mph94%30.09 "HgN/A
3:20 AM63 °FPassing clouds.6 mph83%30.09 "HgN/A
2:50 AM61 °FPassing clouds.6 mph88%30.09 "HgN/A
2:20 AM61 °FClear.6 mph88%30.09 "Hg10 mi
1:50 AM61 °FClear.5 mph88%30.12 "Hg10 mi
1:20 AM61 °FClear.5 mph88%30.12 "Hg10 mi
12:50 AM61 °FClear.3 mph88%30.12 "Hg10 mi
12:20 AM63 °FClear.2 mph88%30.12 "Hg10 mi
11:50 PM
Sun, Jul 24
64 °FClear.5 mph78%30.12 "Hg10 mi
11:20 PM66 °FClear.6 mph73%30.12 "Hg10 mi
10:50 PM68 °FClear.6 mph64%30.12 "Hg10 mi
10:20 PM68 °FPassing clouds.3 mph69%30.12 "HgN/A
9:50 PM70 °FSunny.6 mph60%30.09 "Hg10 mi
9:20 PM72 °FPassing clouds.8 mph57%30.09 "HgN/A
8:50 PM73 °FPassing clouds.8 mph57%30.09 "HgN/A
8:20 PM73 °FSunny.9 mph57%30.09 "Hg10 mi
7:50 PM73 °FPassing clouds.7 mph53%30.09 "HgN/A
7:20 PM75 °FPassing clouds.6 mph54%30.09 "HgN/A
6:50 PM75 °FPassing clouds.3 mph57%30.09 "HgN/A
6:20 PM79 °FPassing clouds.3 mph58%30.09 "HgN/A
5:50 PM77 °FPassing clouds.8 mph57%30.09 "HgN/A
5:20 PM77 °FPassing clouds.6 mph57%30.09 "HgN/A
4:50 PM75 °FPassing clouds.6 mph61%30.09 "HgN/A
4:20 PM75 °FPassing clouds.6 mph57%30.12 "HgN/A
3:50 PM77 °FPassing clouds.3 mph54%30.12 "HgN/A
3:20 PM75 °FPassing clouds.6 mph57%30.12 "HgN/A
2:50 PM77 °FPassing clouds.2 mph57%30.12 "HgN/A
2:20 PM77 °FPassing clouds.5 mph54%30.12 "HgN/A
Weather by CustomWeather, © 2016

See weather overviewHow to use our weather pages